Time,TemperatureF,DewpointF,PressureIn,WindDirection,WindDirectionDegrees,WindSpeedMPH,WindSpeedGustMPH,Humidity,HourlyPrecipIn,Conditions,Clouds,dailyrainin,SoftwareType,DateUTC
2013-05-30 00:01:00,45.0,29.0,29.64,ESE,123,2.0,0.0,54,-99.99,,,-99.99,,2013-05-30 06:01:00,
2013-05-30 00:12:00,45.0,29.0,29.64,ESE,123,2.0,0.0,54,-99.99,,,-99.99,,2013-05-30 06:12:00,
2013-05-30 00:21:00,45.0,29.0,29.64,SSW,207,0.0,0.0,53,-99.99,,,-99.99,,2013-05-30 06:21:00,
2013-05-30 00:32:00,45.0,29.0,29.64,SSW,207,0.0,0.0,53,-99.99,,,-99.99,,2013-05-30 06:32:00,
2013-05-30 00:41:00,45.0,29.0,29.64,SSW,207,0.0,0.0,53,-99.99,,,-99.99,,2013-05-30 06:41:00,
2013-05-30 00:52:00,45.0,30.0,29.65,SE,138,0.0,0.0,55,-99.99,,,-99.99,,2013-05-30 06:52:00,
2013-05-30 01:01:00,44.0,29.0,29.64,East,96,2.0,0.0,56,-99.99,,,-99.99,,2013-05-30 07:01:00,
2013-05-30 01:12:00,44.0,29.0,29.64,East,96,2.0,0.0,56,-99.99,,,-99.99,,2013-05-30 07:12:00,
2013-05-30 01:21:00,44.0,29.0,29.64,East,96,2.0,0.0,56,-99.99,,,-99.99,,2013-05-30 07:21:00,
2013-05-30 01:31:00,43.0,29.0,29.65,ESE,105,0.0,0.0,58,-99.99,,,-99.99,,2013-05-30 07:31:00,
2013-05-30 01:42:00,43.0,29.0,29.65,ESE,105,0.0,0.0,58,-99.99,,,-99.99,,2013-05-30 07:42:00,
2013-05-30 01:52:00,43.0,30.0,29.65,ESE,110,0.0,0.0,59,-99.99,,,-99.99,,2013-05-30 07:52:00,
2013-05-30 02:01:00,43.0,29.0,29.65,SW,226,0.0,0.0,57,-99.99,,,-99.99,,2013-05-30 08:01:00,
2013-05-30 02:11:00,43.0,29.0,29.65,SW,226,0.0,0.0,57,-99.99,,,-99.99,,2013-05-30 08:11:00,
2013-05-30 02:21:00,42.0,30.0,29.65,SW,226,0.0,0.0,63,-99.99,,,-99.99,,2013-05-30 08:21:00,
2013-05-30 02:31:00,42.0,29.0,29.65,ESE,102,0.0,0.0,59,-99.99,,,-99.99,,2013-05-30 08:31:00,
2013-05-30 02:41:00,42.0,29.0,29.65,ESE,102,0.0,0.0,59,-99.99,,,-99.99,,2013-05-30 08:41:00,
2013-05-30 02:52:00,42.0,29.0,29.65,ESE,102,0.0,0.0,59,-99.99,,,-99.99,,2013-05-30 08:52:00,
2013-05-30 03:01:00,42.0,29.0,29.65,ESE,102,0.0,0.0,59,-99.99,,,-99.99,,2013-05-30 09:01:00,
2013-05-30 03:11:00,42.0,29.0,29.65,ESE,102,0.0,0.0,59,-99.99,,,-99.99,,2013-05-30 09:11:00,
2013-05-30 03:33:00,45.0,30.0,29.66,SSW,200,1.0,0.0,55,-99.99,,,-99.99,,2013-05-30 09:33:00,
2013-05-30 03:43:00,45.0,30.0,29.66,SSW,200,1.0,0.0,55,-99.99,,,-99.99,,2013-05-30 09:43:00,
2013-05-30 03:53:00,45.0,30.0,29.66,SSW,200,1.0,0.0,55,-99.99,,,-99.99,,2013-05-30 09:53:00,
2013-05-30 04:02:00,49.0,30.0,29.67,SW,235,5.0,0.0,47,-99.99,,,-99.99,,2013-05-30 10:02:00,
2013-05-30 04:12:00,49.0,30.0,29.67,SW,235,5.0,0.0,47,-99.99,,,-99.99,,2013-05-30 10:12:00,
2013-05-30 04:22:00,49.0,30.0,29.67,SW,236,7.0,0.0,47,-99.99,,,-99.99,,2013-05-30 10:22:00,
2013-05-30 04:32:00,50.0,29.0,29.67,SSW,211,8.0,0.0,44,-99.99,,,-99.99,,2013-05-30 10:32:00,
2013-05-30 04:42:00,50.0,29.0,29.67,SSW,211,8.0,0.0,44,-99.99,,,-99.99,,2013-05-30 10:42:00,
2013-05-30 04:52:00,50.0,29.0,29.67,SSW,211,8.0,0.0,44,-99.99,,,-99.99,,2013-05-30 10:52:00,
2013-05-30 05:03:00,50.0,29.0,29.67,SSW,211,8.0,0.0,44,-99.99,,,-99.99,,2013-05-30 11:03:00,
2013-05-30 05:21:00,47.0,30.0,29.69,SW,221,0.0,0.0,52,-99.99,,,-99.99,,2013-05-30 11:21:00,
2013-05-30 05:32:00,47.0,31.0,29.68,SW,231,0.0,0.0,54,-99.99,,,-99.99,,2013-05-30 11:32:00,
2013-05-30 05:42:00,47.0,31.0,29.68,SW,231,0.0,0.0,54,-99.99,,,-99.99,,2013-05-30 11:42:00,
2013-05-30 05:52:00,47.0,32.0,29.69,ENE,63,0.0,0.0,55,-99.99,,,-99.99,,2013-05-30 11:52:00,
2013-05-30 06:01:00,47.0,31.0,29.69,WSW,240,2.0,0.0,53,-99.99,,,-99.99,,2013-05-30 12:01:00,
2013-05-30 06:11:00,47.0,31.0,29.69,WSW,240,2.0,0.0,53,-99.99,,,-99.99,,2013-05-30 12:11:00,
2013-05-30 06:21:00,47.0,30.0,29.69,SW,230,0.0,0.0,52,-99.99,,,-99.99,,2013-05-30 12:21:00,
2013-05-30 06:32:00,47.0,31.0,29.69,NW,308,0.0,0.0,53,-99.99,,,-99.99,,2013-05-30 12:32:00,
2013-05-30 06:42:00,47.0,31.0,29.69,NW,308,0.0,0.0,53,-99.99,,,-99.99,,2013-05-30 12:42:00,
2013-05-30 06:52:00,46.0,32.0,29.69,SSW,203,1.0,0.0,58,-99.99,,,-99.99,,2013-05-30 12:52:00,
2013-05-30 07:01:00,46.0,32.0,29.70,WNW,297,2.0,0.0,59,-99.99,,,-99.99,,2013-05-30 13:01:00,
2013-05-30 07:11:00,46.0,32.0,29.70,WNW,297,2.0,0.0,59,-99.99,,,-99.99,,2013-05-30 13:11:00,
2013-05-30 07:21:00,46.0,32.0,29.70,West,266,0.0,0.0,57,-99.99,,,-99.99,,2013-05-30 13:21:00,
2013-05-30 07:32:00,47.0,31.0,29.71,WNW,291,0.0,0.0,54,-99.99,,,-99.99,,2013-05-30 13:32:00,
2013-05-30 07:41:00,47.0,31.0,29.71,WNW,291,0.0,0.0,54,-99.99,,,-99.99,,2013-05-30 13:41:00,
2013-05-30 07:52:00,47.0,32.0,29.71,North,10,0.0,0.0,55,-99.99,,,-99.99,,2013-05-30 13:52:00,
2013-05-30 08:01:00,47.0,33.0,29.72,North,356,1.0,0.0,58,-99.99,,,-99.99,,2013-05-30 14:01:00,
2013-05-30 08:11:00,47.0,33.0,29.72,North,356,1.0,0.0,58,-99.99,,,-99.99,,2013-05-30 14:11:00,
2013-05-30 08:21:00,48.0,33.0,29.72,NE,47,0.0,0.0,55,-99.99,,,-99.99,,2013-05-30 14:21:00,
2013-05-30 08:32:00,49.0,33.0,29.72,East,91,2.0,0.0,53,-99.99,,,-99.99,,2013-05-30 14:32:00,
2013-05-30 08:42:00,49.0,33.0,29.72,East,91,2.0,0.0,53,-99.99,,,-99.99,,2013-05-30 14:42:00,
2013-05-30 08:51:00,50.0,34.0,29.72,NE,41,2.0,0.0,53,-99.99,,,-99.99,,2013-05-30 14:51:00,
2013-05-30 09:01:00,51.0,34.0,29.73,ENE,60,1.0,0.0,51,-99.99,,,-99.99,,2013-05-30 15:01:00,
2013-05-30 09:11:00,51.0,34.0,29.73,ENE,60,1.0,0.0,51,-99.99,,,-99.99,,2013-05-30 15:11:00,
2013-05-30 09:22:00,51.0,31.0,29.73,East,91,0.0,0.0,47,-99.99,,,-99.99,,2013-05-30 15:22:00,
2013-05-30 09:33:00,51.0,31.0,29.73,East,91,0.0,0.0,47,-99.99,,,-99.99,,2013-05-30 15:33:00,
2013-05-30 09:42:00,51.0,31.0,29.73,East,91,0.0,0.0,47,-99.99,,,-99.99,,2013-05-30 15:42:00,
2013-05-30 09:52:00,52.0,31.0,29.72,East,94,2.0,0.0,45,-99.99,,,-99.99,,2013-05-30 15:52:00,
2013-05-30 10:03:00,54.0,31.0,29.72,NE,53,2.0,0.0,42,-99.99,,,-99.99,,2013-05-30 16:03:00,
2013-05-30 10:12:00,54.0,31.0,29.72,NE,53,2.0,0.0,42,-99.99,,,-99.99,,2013-05-30 16:12:00,
2013-05-30 10:22:00,54.0,31.0,29.72,NE,53,2.0,0.0,42,-99.99,,,-99.99,,2013-05-30 16:22:00,
2013-05-30 10:33:00,55.0,31.0,29.72,SE,146,2.0,0.0,40,-99.99,,,-99.99,,2013-05-30 16:33:00,
2013-05-30 10:42:00,55.0,31.0,29.72,SE,146,2.0,0.0,40,-99.99,,,-99.99,,2013-05-30 16:42:00,
2013-05-30 10:53:00,58.0,31.0,29.70,WSW,238,6.0,0.0,36,-99.99,,,-99.99,,2013-05-30 16:53:00,
2013-05-30 11:02:00,60.0,29.0,29.70,SSE,149,0.0,12.0,31,-99.99,,,-99.99,,2013-05-30 17:02:00,
2013-05-30 11:11:00,60.0,29.0,29.70,SSE,149,0.0,12.0,31,-99.99,,,-99.99,,2013-05-30 17:11:00,
2013-05-30 11:22:00,60.0,29.0,29.70,SSE,149,0.0,12.0,31,-99.99,,,-99.99,,2013-05-30 17:22:00,
2013-05-30 11:32:00,62.0,29.0,29.69,South,183,4.0,15.0,28,-99.99,,,-99.99,,2013-05-30 17:32:00,
2013-05-30 11:42:00,62.0,29.0,29.69,South,183,4.0,15.0,28,-99.99,,,-99.99,,2013-05-30 17:42:00,
2013-05-30 11:52:00,62.0,29.0,29.69,South,183,4.0,15.0,28,-99.99,,,-99.99,,2013-05-30 17:52:00,
2013-05-30 12:02:00,63.0,28.0,29.69,West,281,4.0,17.0,26,-99.99,,,-99.99,,2013-05-30 18:02:00,
2013-05-30 12:11:00,63.0,28.0,29.69,West,281,4.0,17.0,26,-99.99,,,-99.99,,2013-05-30 18:11:00,
2013-05-30 12:21:00,63.0,25.0,29.69,WNW,294,7.0,13.0,23,-99.99,,,-99.99,,2013-05-30 18:21:00,
2013-05-30 12:32:00,64.0,26.0,29.69,SW,214,4.0,15.0,24,-99.99,,,-99.99,,2013-05-30 18:32:00,
2013-05-30 12:42:00,64.0,26.0,29.69,SW,214,4.0,15.0,24,-99.99,,,-99.99,,2013-05-30 18:42:00,
2013-05-30 12:51:00,64.0,26.0,29.69,SW,214,4.0,15.0,24,-99.99,,,-99.99,,2013-05-30 18:51:00,
2013-05-30 13:01:00,65.0,28.0,29.68,SW,226,11.0,0.0,25,-99.99,,,-99.99,,2013-05-30 19:01:00,
2013-05-30 13:11:00,65.0,28.0,29.68,SW,226,11.0,0.0,25,-99.99,,,-99.99,,2013-05-30 19:11:00,
2013-05-30 13:22:00,67.0,28.0,29.68,West,281,8.0,21.0,23,-99.99,,,-99.99,,2013-05-30 19:22:00,
2013-05-30 13:32:00,67.0,27.0,29.68,WSW,249,10.0,15.0,22,-99.99,,,-99.99,,2013-05-30 19:32:00,
2013-05-30 13:42:00,67.0,27.0,29.68,WSW,249,10.0,15.0,22,-99.99,,,-99.99,,2013-05-30 19:42:00,
2013-05-30 13:52:00,67.0,22.0,29.69,NW,311,8.0,22.0,18,-99.99,,,-99.99,,2013-05-30 19:52:00,
2013-05-30 14:01:00,68.0,24.0,29.67,WSW,249,5.0,24.0,19,-99.99,,,-99.99,,2013-05-30 20:01:00,
2013-05-30 14:11:00,68.0,24.0,29.67,WSW,249,5.0,24.0,19,-99.99,,,-99.99,,2013-05-30 20:11:00,
2013-05-30 14:22:00,68.0,24.0,29.67,WSW,249,5.0,24.0,19,-99.99,,,-99.99,,2013-05-30 20:22:00,
2013-05-30 14:33:00,68.0,24.0,29.68,South,184,6.0,18.0,19,-99.99,,,-99.99,,2013-05-30 20:33:00,
2013-05-30 14:41:00,68.0,24.0,29.68,South,184,6.0,18.0,19,-99.99,,,-99.99,,2013-05-30 20:41:00,
2013-05-30 14:52:00,68.0,24.0,29.68,South,184,6.0,18.0,19,-99.99,,,-99.99,,2013-05-30 20:52:00,
2013-05-30 15:01:00,67.0,25.0,29.67,West,278,3.0,16.0,20,-99.99,,,-99.99,,2013-05-30 21:01:00,
2013-05-30 15:11:00,67.0,25.0,29.67,West,278,3.0,16.0,20,-99.99,,,-99.99,,2013-05-30 21:11:00,
2013-05-30 15:22:00,67.0,25.0,29.67,West,278,3.0,16.0,20,-99.99,,,-99.99,,2013-05-30 21:22:00,
2013-05-30 15:33:00,68.0,20.0,29.67,West,264,5.0,16.0,16,-99.99,,,-99.99,,2013-05-30 21:33:00,
2013-05-30 15:42:00,68.0,20.0,29.67,West,264,5.0,16.0,16,-99.99,,,-99.99,,2013-05-30 21:42:00,
2013-05-30 15:53:00,69.0,22.0,29.66,WSW,245,2.0,18.0,17,-99.99,,,-99.99,,2013-05-30 21:53:00,
2013-05-30 16:02:00,69.0,22.0,29.66,WSW,245,2.0,18.0,17,-99.99,,,-99.99,,2013-05-30 22:02:00,
2013-05-30 16:12:00,69.0,22.0,29.66,WSW,245,2.0,18.0,17,-99.99,,,-99.99,,2013-05-30 22:12:00,
2013-05-30 16:22:00,69.0,19.0,29.65,West,266,6.0,23.0,15,-99.99,,,-99.99,,2013-05-30 22:22:00,
2013-05-30 16:33:00,69.0,21.0,29.65,WNW,287,5.0,18.0,16,-99.99,,,-99.99,,2013-05-30 22:33:00,
2013-05-30 16:42:00,68.0,20.0,29.64,WNW,290,6.0,18.0,16,-99.99,,,-99.99,,2013-05-30 22:42:00,
2013-05-30 16:52:00,68.0,20.0,29.64,WNW,290,6.0,18.0,16,-99.99,,,-99.99,,2013-05-30 22:52:00,
2013-05-30 17:02:00,69.0,21.0,29.65,SSW,212,7.0,22.0,16,-99.99,,,-99.99,,2013-05-30 23:02:00,
2013-05-30 17:11:00,69.0,21.0,29.65,SSW,212,7.0,22.0,16,-99.99,,,-99.99,,2013-05-30 23:11:00,
2013-05-30 17:21:00,68.0,23.0,29.65,NW,311,7.0,15.0,18,-99.99,,,-99.99,,2013-05-30 23:21:00,
2013-05-30 17:31:00,69.0,24.0,29.64,West,281,6.0,14.0,18,-99.99,,,-99.99,,2013-05-30 23:31:00,
2013-05-30 17:41:00,69.0,24.0,29.64,West,281,6.0,14.0,18,-99.99,,,-99.99,,2013-05-30 23:41:00,
2013-05-30 17:52:00,68.0,22.0,29.64,West,272,9.0,16.0,17,-99.99,,,-99.99,,2013-05-30 23:52:00,
2013-05-30 18:01:00,68.0,22.0,29.64,West,272,9.0,16.0,17,-99.99,,,-99.99,,2013-05-31 00:01:00,
2013-05-30 18:11:00,68.0,22.0,29.64,West,272,9.0,16.0,17,-99.99,,,-99.99,,2013-05-31 00:11:00,
2013-05-30 18:21:00,68.0,20.0,29.64,West,267,6.0,14.0,16,-99.99,,,-99.99,,2013-05-31 00:21:00,
2013-05-30 18:32:00,68.0,23.0,29.64,WSW,252,4.0,0.0,18,-99.99,,,-99.99,,2013-05-31 00:32:00,
2013-05-30 18:42:00,68.0,23.0,29.64,WSW,252,4.0,0.0,18,-99.99,,,-99.99,,2013-05-31 00:42:00,
2013-05-30 18:51:00,68.0,23.0,29.64,WSW,252,4.0,0.0,18,-99.99,,,-99.99,,2013-05-31 00:51:00,
2013-05-30 19:01:00,67.0,23.0,29.64,NW,311,6.0,13.0,19,-99.99,,,-99.99,,2013-05-31 01:01:00,
2013-05-30 19:11:00,67.0,23.0,29.64,NW,311,6.0,13.0,19,-99.99,,,-99.99,,2013-05-31 01:11:00,
2013-05-30 19:21:00,67.0,22.0,29.64,SW,222,9.0,18.0,18,-99.99,,,-99.99,,2013-05-31 01:21:00,
2013-05-30 19:31:00,66.0,23.0,29.63,NW,310,3.0,0.0,19,-99.99,,,-99.99,,2013-05-31 01:31:00,
2013-05-30 19:42:00,66.0,25.0,29.63,WSW,252,2.0,0.0,21,-99.99,,,-99.99,,2013-05-31 01:42:00,
2013-05-30 19:51:00,66.0,25.0,29.63,WSW,252,2.0,0.0,21,-99.99,,,-99.99,,2013-05-31 01:51:00,
2013-05-30 20:02:00,65.0,25.0,29.63,West,266,5.0,0.0,22,-99.99,,,-99.99,,2013-05-31 02:02:00,
2013-05-30 20:11:00,65.0,25.0,29.63,West,266,5.0,0.0,22,-99.99,,,-99.99,,2013-05-31 02:11:00,
2013-05-30 20:21:00,64.0,24.0,29.64,West,260,5.0,0.0,22,-99.99,,,-99.99,,2013-05-31 02:21:00,
2013-05-30 20:32:00,63.0,25.0,29.64,WNW,295,0.0,0.0,23,-99.99,,,-99.99,,2013-05-31 02:32:00,
2013-05-30 20:41:00,63.0,25.0,29.64,WNW,295,0.0,0.0,23,-99.99,,,-99.99,,2013-05-31 02:41:00,
2013-05-30 20:51:00,63.0,25.0,29.64,WNW,295,0.0,0.0,23,-99.99,,,-99.99,,2013-05-31 02:51:00,
2013-05-30 21:01:00,56.0,27.0,29.66,SE,124,1.0,0.0,33,-99.99,,,-99.99,,2013-05-31 03:01:00,
2013-05-30 21:11:00,56.0,27.0,29.66,SE,124,1.0,0.0,33,-99.99,,,-99.99,,2013-05-31 03:11:00,
2013-05-30 21:21:00,56.0,27.0,29.66,SE,124,1.0,0.0,33,-99.99,,,-99.99,,2013-05-31 03:21:00,
2013-05-30 21:33:00,53.0,27.0,29.67,SW,231,1.0,0.0,36,-99.99,,,-99.99,,2013-05-31 03:33:00,
2013-05-30 22:02:00,49.0,27.0,29.69,WNW,297,0.0,0.0,42,-99.99,,,-99.99,,2013-05-31 04:02:00,
2013-05-30 23:02:00,48.0,28.0,29.73,SSE,155,0.0,0.0,46,-99.99,,,-99.99,,2013-05-31 05:02:00,
2013-05-30 23:31:00,48.0,27.0,29.74,East,84,1.0,0.0,43,-99.99,,,-99.99,,2013-05-31 05:31:00,
2013-05-30 23:41:00,48.0,27.0,29.74,East,84,1.0,0.0,43,-99.99,,,-99.99,,2013-05-31 05:41:00,
2013-05-30 23:52:00,48.0,27.0,29.74,East,84,1.0,0.0,43,-99.99,,,-99.99,,2013-05-31 05:52:00,